| time (UTC) | temp F | wind direction | speed knots | gust knots | rain 1hr in | rain 24hr in | rain mn in | humidity % | barometer mb |
| 20260503204029 | 68 | 0.0 | 0.0 | 0.00 | 0.00 | 0.00 | 5 | 1012.0 | |
| 20260503203018 | 68 | 0.0 | 0.0 | 0.00 | 0.00 | 0.00 | 4 | 1012.0 | |
| 20260503202038 | 68 | 0.0 | 0.0 | 0.00 | 0.00 | 0.00 | 4 | 1012.0 | |
| 20260503201046 | 68 | 0.0 | 0.0 | 0.00 | 0.00 | 0.00 | 4 | 1012.0 | |
| 20260503200035 | 68 | 0.0 | 0.0 | 0.00 | 0.00 | 0.00 | 4 | 1012.0 | |
| 20260503195045 | 69 | 0.0 | 0.0 | 0.00 | 0.00 | 0.00 | 4 | 1012.0 | |
| 20260503194037 | 69 | 0.0 | 0.0 | 0.00 | 0.00 | 0.00 | 4 | 1012.0 | |
| 20260503193051 | 70 | 0.0 | 0.0 | 0.00 | 0.00 | 0.00 | 4 | 1012.0 | |
| 20260503192101 | 70 | 0.0 | 0.0 | 0.00 | 0.00 | 0.00 | 3 | 1012.0 | |
| 20260503191024 | 71 | 0.0 | 0.0 | 0.00 | 0.00 | 0.00 | 3 | 1012.0 | |
| 20260503190027 | 71 | 0.0 | 0.0 | 0.00 | 0.00 | 0.00 | 3 | 1012.0 | |
| 20260503185104 | 72 | 0.0 | 0.0 | 0.00 | 0.00 | 0.00 | 3 | 1012.0 | |
| 20260503184022 | 72 | 0.0 | 0.0 | 0.00 | 0.00 | 0.00 | 3 | 1012.0 | |
| 20260503183056 | 73 | 203 | 0.0 | 0.9 | 0.00 | 0.00 | 0.00 | 3 | 1012.0 |
| 20260503182017 | 73 | 225 | 0.0 | 0.9 | 0.00 | 0.00 | 0.00 | 3 | 1012.0 |
| 20260503181020 | 74 | 212 | 0.9 | 1.7 | 0.00 | 0.00 | 0.00 | 2 | 1012.0 |
| 20260503180038 | 74 | 217 | 0.9 | 0.9 | 0.00 | 0.00 | 0.00 | 2 | 1012.0 |
| 20260503175022 | 75 | 223 | 0.9 | 1.7 | 0.00 | 0.00 | 0.00 | 2 | 1012.0 |
| 20260503174052 | 75 | 220 | 0.9 | 1.7 | 0.00 | 0.00 | 0.00 | 2 | 1012.0 |
| 20260503173046 | 75 | 257 | 0.9 | 1.7 | 0.00 | 0.00 | 0.00 | 2 | 1012.0 |
| 20260503172031 | 76 | 210 | 0.9 | 0.9 | 0.00 | 0.00 | 0.00 | 2 | 1012.0 |
| 20260503171054 | 76 | 239 | 0.9 | 2.6 | 0.00 | 0.00 | 0.00 | 2 | 1012.0 |
| 20260503131022 | 83 | 231 | 0.9 | 1.7 | 0.00 | 0.00 | 0.00 | 2 | 1014.0 |
| 20260503081045 | 72 | 235 | 0.9 | 1.7 | 0.00 | 0.00 | 0.00 | 26 | 1017.1 |
| 20260503072036 | 70 | 306 | 0.9 | 0.9 | 0.00 | 0.00 | 0.00 | 31 | 1017.1 |
| 20260503071019 | 69 | 233 | 0.9 | 1.7 | 0.00 | 0.00 | 0.00 | 32 | 1017.1 |
| 20260503070106 | 69 | 215 | 1.7 | 1.7 | 0.00 | 0.00 | 0.00 | 32 | 1017.1 |
| 20260503055047 | 64 | 224 | 0.9 | 0.9 | 0.00 | 0.00 | 0.00 | 34 | 1017.1 |
| 20260503054030 | 63 | 235 | 0.9 | 1.7 | 0.00 | 0.00 | 0.00 | 34 | 1017.1 |
| 20260503053031 | 63 | 209 | 0.9 | 2.6 | 0.00 | 0.00 | 0.00 | 34 | 1017.1 |
| 20260503052047 | 62 | 203 | 0.0 | 0.9 | 0.00 | 0.00 | 0.00 | 35 | 1017.1 |
| 20260503051021 | 62 | 213 | 0.9 | 1.7 | 0.00 | 0.00 | 0.00 | 35 | 1017.1 |
| 20260503050031 | 61 | 225 | 0.0 | 0.9 | 0.00 | 0.00 | 0.00 | 35 | 1017.1 |
| 20260503045023 | 60 | 232 | 0.9 | 1.7 | 0.00 | 0.00 | 0.00 | 36 | 1017.1 |
| 20260503044021 | 60 | 216 | 0.0 | 0.9 | 0.00 | 0.00 | 0.00 | 36 | 1017.1 |
| 20260503043052 | 59 | 225 | 0.0 | 0.9 | 0.00 | 0.00 | 0.00 | 36 | 1017.1 |
| 20260503042027 | 59 | 207 | 0.9 | 0.9 | 0.00 | 0.00 | 0.00 | 36 | 1017.1 |
| 20260503041126 | 58 | 203 | 0.0 | 0.9 | 0.00 | 0.00 | 0.00 | 36 | 1017.1 |
| 20260503040034 | 58 | 248 | 0.0 | 0.9 | 0.00 | 0.00 | 0.00 | 36 | 1017.1 |
| 20260503035022 | 58 | 0.0 | 0.0 | 0.00 | 0.00 | 0.00 | 36 | 1017.1 | |
| 20260503034041 | 57 | 0.0 | 0.0 | 0.00 | 0.00 | 0.00 | 36 | 1017.1 | |
| 20260503033025 | 57 | 0.0 | 0.0 | 0.00 | 0.00 | 0.00 | 36 | 1017.1 | |
| 20260503032126 | 57 | 0.0 | 0.0 | 0.00 | 0.00 | 0.00 | 36 | 1017.1 | |
| 20260503031041 | 57 | 0.0 | 0.0 | 0.00 | 0.00 | 0.00 | 36 | 1017.1 | |
| 20260503030032 | 57 | 0.0 | 0.0 | 0.00 | 0.00 | 0.00 | 35 | 1017.1 | |
| 20260503025028 | 58 | 0.0 | 0.0 | 0.00 | 0.00 | 0.00 | 35 | 1017.1 | |
| 20260503024023 | 58 | 0.0 | 0.0 | 0.00 | 0.00 | 0.00 | 35 | 1017.1 | |
| 20260503023048 | 58 | 0.0 | 0.0 | 0.00 | 0.00 | 0.00 | 35 | 1017.1 | |
| 20260503022021 | 59 | 0.0 | 0.0 | 0.00 | 0.00 | 0.00 | 35 | 1017.1 | |
| 20260503021037 | 59 | 248 | 0.0 | 0.9 | 0.00 | 0.00 | 0.00 | 34 | 1017.1 |
| 20260503020041 | 59 | 0.0 | 0.0 | 0.00 | 0.00 | 0.00 | 34 | 1017.1 | |
| 20260503015046 | 60 | 225 | 0.0 | 0.9 | 0.00 | 0.00 | 0.00 | 34 | 1017.1 |
| 20260503014016 | 60 | 225 | 0.9 | 1.7 | 0.00 | 0.00 | 0.00 | 34 | 1017.1 |
| 20260503013023 | 60 | 217 | 0.9 | 1.7 | 0.00 | 0.00 | 0.00 | 34 | 1017.1 |
| 20260503012105 | 60 | 233 | 0.9 | 0.9 | 0.00 | 0.00 | 0.00 | 34 | 1017.1 |
| 20260503011031 | 60 | 225 | 0.0 | 0.9 | 0.00 | 0.00 | 0.00 | 34 | 1017.1 |
| 20260503010046 | 60 | 225 | 0.9 | 1.7 | 0.00 | 0.00 | 0.00 | 34 | 1017.1 |
| 20260503005043 | 60 | 228 | 0.9 | 1.7 | 0.00 | 0.00 | 0.00 | 34 | 1017.1 |
| 20260503004029 | 60 | 232 | 0.9 | 0.9 | 0.00 | 0.00 | 0.00 | 34 | 1017.1 |
| 20260503003019 | 60 | 221 | 0.9 | 0.9 | 0.00 | 0.00 | 0.00 | 33 | 1017.1 |
| 20260503002025 | 60 | 225 | 0.9 | 0.9 | 0.00 | 0.00 | 0.00 | 33 | 1017.1 |
| 20260503001121 | 60 | 210 | 0.9 | 1.7 | 0.00 | 0.00 | 0.00 | 33 | 1017.1 |
| 20260503000038 | 60 | 0.0 | 0.0 | 0.00 | 0.00 | 0.00 | 33 | 1017.1 | |
| 20260502235023 | 60 | 248 | 0.0 | 0.9 | 0.00 | 0.00 | 0.00 | 33 | 1017.1 |
| 20260502234041 | 60 | 0.0 | 0.0 | 0.00 | 0.00 | 0.00 | 32 | 1017.1 | |
| 20260502233019 | 60 | 0.0 | 0.0 | 0.00 | 0.00 | 0.00 | 32 | 1017.1 | |
| 20260502232019 | 60 | 0.0 | 0.0 | 0.00 | 0.00 | 0.00 | 32 | 1017.1 | |
| 20260502231045 | 60 | 239 | 0.0 | 0.9 | 0.00 | 0.00 | 0.00 | 33 | 1017.1 |
| 20260502230044 | 60 | 0.0 | 0.0 | 0.00 | 0.00 | 0.00 | 33 | 1017.1 | |
| 20260502225032 | 60 | 203 | 0.0 | 0.9 | 0.00 | 0.00 | 0.00 | 33 | 1017.1 |
| 20260502224049 | 60 | 0.0 | 0.0 | 0.00 | 0.00 | 0.00 | 32 | 1017.1 | |
| 20260502223024 | 60 | 0.0 | 0.0 | 0.00 | 0.00 | 0.00 | 32 | 1017.1 | |
| 20260502222040 | 61 | 0.0 | 0.0 | 0.00 | 0.00 | 0.00 | 31 | 1017.1 | |
| 20260502221024 | 61 | 0.0 | 0.0 | 0.00 | 0.00 | 0.00 | 30 | 1017.1 | |
| 20260502220041 | 61 | 0.0 | 0.0 | 0.00 | 0.00 | 0.00 | 29 | 1017.1 | |
| 20260502215016 | 61 | 0.0 | 0.0 | 0.00 | 0.00 | 0.00 | 29 | 1017.1 | |
| 20260502214056 | 61 | 0.0 | 0.0 | 0.00 | 0.00 | 0.00 | 29 | 1017.1 | |
| 20260502213016 | 62 | 0.0 | 0.0 | 0.00 | 0.00 | 0.00 | 29 | 1017.1 | |
| 20260502212044 | 62 | 0.0 | 0.0 | 0.00 | 0.00 | 0.00 | 28 | 1017.4 | |
| 20260502211032 | 62 | 0.0 | 0.0 | 0.00 | 0.00 | 0.00 | 28 | 1018.1 | |
| 20260502210026 | 62 | 0.0 | 0.0 | 0.00 | 0.00 | 0.00 | 27 | 1018.1 | |
| 20260502205038 | 62 | 0.0 | 0.0 | 0.00 | 0.00 | 0.00 | 27 | 1017.6 |